{"data":{"norad_id":64083,"intl_designator":"2025-107V","name":"STARLINK-34126","alt_names":[],"object_type":"PAYLOAD","status":"ACTIVE","operator":null,"country":"US","launch_date":"2025-05-21","launch_site_code":"AFETR","launch_vehicle":null,"mission":null,"orbit_class":"UNKNOWN","rcs_meters":null,"size_class":null,"mass_kg":null,"dimensions":null,"purposes":["comms"],"wikipedia_slug":null,"has_3d_model":false,"image_url":null,"decayed_at":null,"tle_current":{"epoch":"2026-05-25T05:31:30.283104Z","epoch_age_seconds":58257,"freshness":"FRESH","line1":"1 64083U 25107V   26145.23021161  .00014132  00000+0  52169-3 0  9996","line2":"2 64083  42.9986 129.5180 0000450 300.0458  60.0349 15.27603872 56730","mean_motion":15.27603872,"eccentricity":4.5e-5,"inclination_deg":42.9986,"raan_deg":129.518,"arg_perigee_deg":300.0458,"mean_anomaly_deg":60.0349,"bstar":0.00052169,"rev_number":5673,"period_min":94.265275598882,"perigee_km":482.66886545692,"apogee_km":483.28636577232,"semimajor_km":6861.1146156146,"source":"CELESTRAK","updated_at":"2026-05-25T13:38:20.262130Z"}}}